Weather History for KASX - November, 2011

Change the Weather History Date:

Thursday, November 24, 2011

  Actual Average Record
Temperature  
Mean Temperature 46 °F -  
Max Temperature 55 °F 34 °F 55 °F (1988)
Min Temperature 37 °F 18 °F -4 °F (1989)
Degree Days  
Heating Degree Days 19    
Moisture  
Dew Point 38 °F    
Average Humidity 73    
Maximum Humidity 89    
Minimum Humidity 53    
Precipitation  
Precipitation 0.00 in - - ()
Sea Level Pressure  
Sea Level Pressure 29.81 in    
Wind  
Wind Speed 12 mph (SSW)    
Max Wind Speed 15 mph    
Max Gust Speed 26 mph    
Visibility 8 miles    
Events      
Averages and records for this station are not official NWS values.
T = Trace of Precipitation, MM = Missing Value Source: NWS Daily Summary

Daily Weather History Graph

Daily Weather History Graph

Search for Another Location

Airport or City:

Trip Planner

Search our weather history database for the weather conditions in past years. The results will help you decide how hot, cold, wet, or windy it might be!

Date:

Astronomy

Nov. 24, 2011 Rise Set
Actual Time 7:17 AM CST 4:22 PM CST
Civil Twilight 6:44 AM CST 4:56 PM CST
Nautical Twilight 6:06 AM CST 5:33 PM CST
Astronomical Twilight 5:30 AM CST 6:09 PM CST
Moon 6:37 AM CST (11/24) 3:51 PM CST (11/24)
Length of Visible Light 10h 11m
Length of Day
9h 04m
Waning Crescent, 0% of the Moon is Illuminated
Nov 24
Waning Crescent
Nov 25
New
Dec 2
First Quarter
Dec 10
Full
Dec 17
Last Quarter

Hourly Weather History & Observations

Time (CST) Temp. Windchill Dew Point Humidity Pressure Visibility Wind Dir Wind Speed Gust Speed Precip Events Conditions
12:53 AM 39.0 °F 31.4 °F 35.1 °F 86% 29.97 in 5.0 mi SW 12.7 mph - N/A   Clear
1:53 AM 39.0 °F 31.4 °F 35.1 °F 86% 29.96 in 5.0 mi SSW 12.7 mph 23.0 mph N/A   Clear
2:53 AM 37.9 °F 29.2 °F 35.1 °F 89% 29.95 in 5.0 mi SSW 15.0 mph 21.9 mph N/A   Clear
3:53 AM 37.0 °F 29.8 °F 34.0 °F 89% 29.94 in 5.0 mi SSW 10.4 mph - N/A   Clear
4:53 AM 37.9 °F 30.5 °F 34.0 °F 86% 29.93 in 6.0 mi SSW 11.5 mph - N/A   Clear
6:53 AM 37.9 °F 31.5 °F 35.1 °F 89% 29.89 in 6.0 mi SSW 9.2 mph - N/A   Clear
7:53 AM 39.9 °F 32.9 °F 35.1 °F 83% 29.88 in 5.0 mi SSW 11.5 mph - N/A   Haze
8:53 AM 43.0 °F 38.2 °F 36.0 °F 76% 29.86 in 6.0 mi SSW 8.1 mph 18.4 mph N/A   Haze
9:53 AM 46.9 °F - 37.0 °F 68% 29.83 in 8.0 mi SSW 12.7 mph 25.3 mph N/A   Clear
10:53 AM 50.0 °F - 37.9 °F 63% 29.81 in 9.0 mi SSW 11.5 mph 24.2 mph N/A   Clear
11:53 AM 52.0 °F - 37.9 °F 59% 29.78 in 10.0 mi SSW 12.7 mph 24.2 mph N/A   Clear
12:53 PM 53.1 °F - 37.9 °F 57% 29.76 in 10.0 mi SSW 15.0 mph 26.5 mph N/A   Clear
1:53 PM 55.9 °F - 39.0 °F 53% 29.74 in 10.0 mi SW 13.8 mph 21.9 mph N/A   Clear
2:53 PM 54.0 °F - 39.0 °F 57% 29.75 in 10.0 mi SSW 15.0 mph - N/A   Clear
3:53 PM 53.1 °F - 39.9 °F 61% 29.74 in 10.0 mi SW 10.4 mph - N/A   Clear
4:53 PM 48.0 °F - 37.9 °F 68% 29.75 in 10.0 mi SSW 6.9 mph - N/A   Clear
5:53 PM 48.0 °F - 39.0 °F 71% 29.75 in 10.0 mi SSW 9.2 mph - N/A   Clear
6:53 PM 48.9 °F - 39.9 °F 71% 29.73 in 10.0 mi SSW 10.4 mph 17.3 mph N/A   Clear
7:53 PM 50.0 °F - 39.9 °F 68% 29.73 in 10.0 mi SW 9.2 mph - N/A   Clear
8:53 PM 48.9 °F - 41.0 °F 74% 29.73 in 10.0 mi SSW 8.1 mph - N/A   Clear
9:53 PM 48.9 °F - 41.0 °F 74% 29.72 in 10.0 mi SSW 10.4 mph - N/A   Clear
10:53 PM 48.0 °F - 41.0 °F 77% 29.70 in 10.0 mi South 8.1 mph - N/A   Clear
11:53 PM 46.0 °F 41.9 °F 39.9 °F 79% 29.70 in 10.0 mi SSW 8.1 mph - N/A   Clear